Location: Bittelbronn
(48.4454°N, 8.5870°E)
Time: 17:34:32
(UTC+00:00)

NOSS 3-4 (C) - Pass Details

Date: 23 May 2024
Orbit: 814 x 1397 km, 63.4° (Epoch: 04 June)

Event Time Altitude Azimuth Distance (km) Brightness Sun altitude
Rises 00:34:02 0° 315° (NW) 3,793 7.0 -19.1°
Reaches altitude 10° 00:36:37 10° 310° (NW) 2,918 6.2 -18.9°
Maximum altitude 00:43:13 46° 240° (WSW) 1,553 4.2 -18.6°
Enters shadow 00:47:18 26° 184° (S) 2,260 4.8 -18.4°
